Wind_Speed
10 10 11 11 12 12 13 13 13 13 12 12 12 12 12 12 12 12 13 13 14 14 15 15 16 17 17 18 19 19 19 20 19 19 21 21 22 23 23 24 25 25 25
11 11 12 12 13 14 14 14 14 13 12 11 12 13 13 13 13 13 14 14 15 15 16 16 17 18 18 19 19 19 20 20 20 20 21 22 23 24 24 24 25 25 25
12 13 13 13 14 14 15 15 15 14 13 13 13 13 14 14 14 14 14 15 15 16 17 17 18 18 19 19 19 19 19 20 21 21 22 23 23 23 23 23 24 24 24
14 14 15 15 15 15 16 16 16 15 15 14 14 14 15 15 15 16 16 16 16 17 18 19 19 19 19 20 20 20 20 21 21 21 21 22 22 22 22 22 23 24 24
16 16 17 17 17 16 16 16 16 15 15 15 15 15 16 16 17 17 17 17 18 18 19 20 20 20 20 20 20 20 21 21 22 22 22 22 23 23 23 22 22 23 24
18 18 19 19 19 17 17 17 16 16 16 15 16 16 16 17 18 18 19 19 18 19 19 20 20 20 20 20 20 20 21 22 22 22 22 22 23 23 23 22 23 23 24
20 20 20 21 20 18 18 17 16 16 16 17 17 17 17 18 18 19 19 20 20 20 20 20 20 20 20 20 20 21 21 21 21 22 22 22 22 23 23 23 23 24 24
21 22 22 21 20 19 19 18 18 18 18 18 18 18 18 18 19 19 19 19 20 21 21 21 21 21 21 21 21 22 22 22 22 22 22 22 22 23 23 24 24 25 25
22 23 22 22 22 21 21 20 20 19 19 19 19 20 20 20 20 20 20 21 21 21 21 21 22 22 22 22 23 22 22 22 23 23 23 23 23 23 23 24 24 25 25
23 23 23 23 23 23 22 21 20 21 21 21 21 21 21 21 21 21 22 23 22 22 22 22 23 23 23 23 23 23 23 23 23 23 23 23 23 23 24 24 25 25 26
25 25 26 25 23 24 23 22 22 22 22 22 23 23 22 22 22 23 24 24 24 23 23 24 24 24 24 24 24 24 24 24 24 23 23 24 24 24 24 25 26 27 27
27 27 27 26 25 25 24 23 23 23 24 24 24 23 24 23 23 24 24 25 26 26 26 25 25 25 25 25 25 24 24 24 24 24 24 24 24 25 25 26 27 28 29
27 27 27 27 27 27 25 25 25 25 25 26 25 25 25 25 25 25 25 26 27 27 27 26 26 25 25 25 25 25 24 25 25 25 25 25 26 26 27 28 29 29 30
28 27 27 27 27 28 28 27 27 27 27 27 27 26 26 26 26 26 26 25 25 26 26 26 26 26 26 26 26 27 26 26 25 26 26 26 26 27 28 29 29 30 30
29 29 29 29 29 30 30 29 29 29 29 28 28 28 28 28 27 27 27 26 25 25 25 25 25 26 26 26 26 26 26 26 26 26 26 26 27 28 28 29 29 30 31
31 30 30 31 32 31 30 30 30 30 30 29 29 29 29 29 28 28 27 26 26 26 25 25 25 25 25 25 26 25 25 25 26 26 27 27 28 28 29 29 30 31 31
32 32 32 32 32 32 31 31 31 31 31 31 31 30 30 30 29 29 29 28 28 27 26 25 25 25 25 26 26 26 26 26 26 27 28 29 29 29 30 30 31 31 32
33 32 32 32 33 33 32 32 32 32 32 32 31 31 31 30 30 29 29 28 28 28 27 26 26 26 26 27 27 27 27 27 28 29 29 30 30 30 30 31 31 31 32
33 32 33 33 33 33 33 33 32 32 32 31 31 31 31 31 30 29 29 29 29 28 28 28 27 28 28 28 28 27 28 28 29 30 30 30 30 30 30 31 31 31 31
33 33 33 34 34 33 33 33 32 32 32 32 32 31 31 30 30 30 29 29 30 29 29 29 29 29 29 29 29 28 28 28 29 29 29 30 30 30 31 31 31 31 31
33 32 32 33 33 33 33 33 32 32 32 31 31 31 30 29 29 29 30 30 30 30 30 30 30 30 30 30 29 29 28 28 29 29 30 30 30 30 30 31 31 31 31
32 32 32 33 33 34 33 32 32 32 32 31 30 30 30 30 29 29 30 30 30 31 31 30 30 30 30 30 29 29 29 29 29 29 30 30 31 31 31 31 31 31 30
30 31 32 33 32 32 32 32 32 31 31 31 29 29 30 30 30 30 31 31 31 31 30 30 30 30 30 30 30 30 29 29 30 30 30 30 31 31 31 31 31 31 30
29 29 30 30 31 32 31 31 31 31 31 31 31 31 31 31 31 31 31 31 30 30 30 30 30 30 29 29 29 29 29 30 31 31 31 31 31 31 31 30 30 30 30
29 29 30 30 30 30 30 31 32 32 32 32 31 31 31 31 31 31 31 30 30 29 29 29 29 29 29 29 29 29 29 30 31 31 31 31 31 31 31 30 30 30 30
29 30 30 30 30 31 31 32 33 33 33 33 33 32 31 30 30 29 30 30 31 30 29 28 29 29 29 30 30 30 30 30 31 31 31 31 31 31 31 31 30 30 30
Wind_Direction
341 341 339 338 336 333 330 326 326 323 319 314 310 308 309 307 305 304 300 297 297 293 291 290 291 288 285 285 286 287 286 285 282 280 281 280 280 278 279 278 278 278 279
331 329 329 329 328 325 324 323 322 320 316 312 312 312 309 308 305 303 301 298 296 296 296 294 292 291 289 288 286 286 286 285 284 282 282 282 282 281 281 280 280 281 280
317 317 320 321 319 318 320 319 315 313 311 309 309 310 310 308 306 304 302 298 295 295 295 296 294 293 291 290 288 287 287 289 287 284 283 283 284 284 282 281 283 283 282
312 311 313 314 313 314 316 316 313 309 308 307 306 308 308 307 306 304 302 301 299 297 296 296 296 297 295 292 291 291 291 292 292 292 289 287 287 287 286 285 285 285 284
308 310 312 313 311 310 312 313 313 312 310 308 306 308 306 305 305 305 305 303 301 299 300 299 296 295 296 296 293 292 293 293 293 294 293 290 288 287 287 287 287 286 286
301 304 308 308 309 308 310 311 310 309 309 309 307 306 305 305 305 305 305 303 303 301 301 300 297 295 296 296 294 293 294 294 294 294 293 291 289 288 288 287 288 290 289
297 300 304 307 307 305 307 309 309 310 310 307 306 306 304 303 303 303 305 305 302 301 300 298 297 296 297 296 295 294 295 294 294 295 295 293 291 290 289 289 290 291 292
294 297 300 304 305 304 303 304 304 304 305 305 308 308 308 307 304 301 302 304 302 300 299 298 297 297 298 296 296 296 295 295 294 293 294 294 293 292 291 290 290 291 291
291 295 296 298 302 301 300 299 299 298 299 301 304 304 305 305 304 302 301 301 300 301 300 299 298 298 297 296 296 296 296 298 296 293 292 293 293 292 291 291 292 293 293
288 291 293 295 296 296 296 296 295 294 296 297 300 301 302 303 302 301 298 297 297 298 299 300 300 299 297 296 297 297 296 297 296 294 293 293 293 291 291 291 293 294 295
286 289 290 290 291 293 293 294 294 294 296 296 298 298 300 301 300 299 298 296 297 296 297 297 298 297 297 296 296 296 297 297 295 294 293 293 293 293 293 293 294 295 295
286 289 291 290 290 293 293 291 291 293 295 296 297 296 298 300 300 299 299 295 295 294 294 294 294 295 295 295 295 296 296 295 295 293 293 293 293 293 295 296 296 297 297
284 286 289 291 291 293 295 295 292 292 293 294 295 295 296 298 299 299 298 296 294 293 293 292 293 293 293 294 294 294 295 294 294 294 294 295 294 294 296 297 297 297 298
283 284 286 287 288 289 292 294 294 292 293 293 293 293 294 296 296 297 298 299 299 297 294 293 294 293 294 293 293 293 294 294 294 295 295 295 296 296 297 298 299 298 298
281 281 283 285 287 287 288 290 292 292 292 294 294 294 295 296 296 296 296 296 296 297 296 295 294 294 293 294 294 294 294 293 293 294 294 295 297 298 299 300 299 299 299
280 280 283 284 285 287 287 288 290 292 292 293 293 293 293 294 294 293 292 292 293 293 294 294 294 294 294 293 293 293 294 294 294 294 293 295 298 300 301 301 301 301 301
281 281 282 284 285 287 289 289 287 289 291 290 290 291 292 292 291 290 289 289 290 290 291 292 292 292 292 292 291 292 293 294 296 296 297 298 299 299 300 300 301 301 302
280 281 280 282 284 285 286 288 287 288 289 288 289 290 290 290 290 289 288 288 288 289 289 289 289 289 290 291 291 290 291 294 296 297 298 298 299 299 301 301 301 301 302
280 279 280 281 282 283 284 286 287 286 287 289 289 289 288 288 289 288 287 287 288 288 288 289 289 289 288 289 289 290 291 293 294 296 297 299 300 301 302 303 302 302 302
280 279 279 280 282 283 284 285 286 287 287 289 289 288 288 287 286 286 286 287 287 287 287 289 289 288 289 289 289 290 291 293 294 296 297 298 299 300 302 303 303 304 303
279 279 279 280 282 283 284 285 286 287 288 290 289 288 288 287 287 287 287 287 286 286 287 288 289 288 289 289 288 289 291 293 295 296 297 298 299 300 301 302 303 304 304
278 277 278 279 281 283 285 285 286 287 289 290 291 290 288 288 286 288 288 287 286 285 284 286 288 288 289 288 288 289 290 291 294 297 298 298 300 301 301 302 302 303 303
279 279 278 280 282 283 284 285 286 286 288 289 289 290 289 287 287 288 287 286 285 283 283 284 286 288 289 289 288 289 290 292 294 296 298 299 300 301 303 303 303 303 302
282 283 283 284 284 284 284 284 285 288 289 288 288 289 289 289 287 286 286 287 286 283 283 283 284 286 288 288 288 288 290 292 293 295 296 298 299 300 302 302 302 302 301
284 284 284 284 285 286 285 284 284 286 287 287 288 289 289 288 287 285 285 285 285 284 284 284 285 285 286 287 288 289 290 291 292 293 294 296 298 299 299 300 301 301 300
285 285 284 283 284 286 286 285 286 286 285 285 287 289 288 287 287 286 286 285 283 283 283 284 286 286 286 286 287 288 289 290 292 293 295 296 297 298 299 300 300 299 300
Height
5883 5882 5880 5878 5876 5874 5872 5870 5868 5866 5864 5862 5861 5859 5858 5856 5855 5853 5852 5850 5849 5848 5847 5845 5844 5842 5841 5840 5838 5837 5836 5835 5833 5832 5830 5829 5828 5828 5827 5826 5825 5824 5823
5881 5880 5878 5876 5874 5872 5870 5867 5865 5863 5861 5859 5858 5856 5855 5853 5852 5850 5848 5847 5846 5844 5843 5841 5840 5838 5837 5835 5833 5832 5831 5829 5828 5827 5825 5824 5823 5822 5821 5820 5819 5818 5817
5879 5877 5876 5873 5871 5869 5867 5864 5862 5860 5858 5856 5855 5853 5852 5850 5848 5847 5845 5843 5842 5840 5839 5837 5835 5833 5831 5830 5828 5826 5825 5824 5822 5821 5819 5818 5817 5815 5814 5813 5812 5811 5810
5876 5874 5871 5869 5867 5866 5863 5861 5858 5857 5855 5853 5852 5850 5848 5847 5845 5843 5841 5840 5838 5836 5835 5833 5831 5829 5826 5825 5823 5821 5820 5818 5817 5815 5813 5812 5811 5809 5808 5807 5806 5805 5804
5873 5870 5868 5866 5864 5862 5860 5858 5855 5853 5851 5850 5848 5846 5844 5842 5841 5839 5837 5835 5834 5832 5830 5828 5826 5824 5822 5820 5818 5816 5815 5813 5811 5809 5808 5806 5805 5804 5802 5801 5800 5798 5797
5869 5866 5864 5862 5860 5858 5856 5854 5852 5850 5848 5846 5845 5843 5840 5838 5836 5834 5832 5830 5829 5827 5825 5823 5821 5819 5817 5815 5813 5811 5809 5808 5806 5804 5802 5800 5799 5797 5796 5794 5793 5792 5790
5864 5862 5860 5858 5855 5853 5852 5850 5848 5846 5844 5842 5840 5838 5836 5833 5831 5829 5827 5825 5823 5821 5819 5817 5815 5814 5812 5809 5807 5805 5804 5802 5800 5798 5796 5794 5793 5791 5790 5788 5786 5785 5783
5859 5857 5855 5853 5851 5849 5848 5846 5844 5842 5840 5838 5836 5834 5831 5829 5826 5824 5821 5820 5818 5816 5814 5812 5810 5808 5806 5804 5802 5800 5798 5796 5794 5792 5790 5789 5787 5785 5783 5782 5780 5778 5776
5853 5851 5849 5848 5846 5845 5843 5841 5839 5837 5835 5833 5831 5829 5826 5823 5821 5818 5816 5814 5812 5810 5808 5806 5804 5802 5800 5798 5796 5794 5792 5790 5788 5786 5784 5782 5780 5778 5777 5775 5773 5771 5769
5847 5845 5843 5841 5840 5838 5837 5835 5833 5831 5829 5827 5825 5823 5820 5818 5815 5813 5810 5808 5806 5805 5803 5801 5799 5796 5794 5792 5790 5788 5786 5784 5782 5780 5778 5776 5774 5772 5770 5768 5766 5764 5762
5839 5838 5836 5834 5832 5831 5830 5828 5827 5825 5823 5821 5819 5817 5814 5812 5809 5807 5804 5802 5800 5798 5796 5794 5792 5790 5788 5786 5783 5781 5779 5777 5775 5773 5771 5769 5767 5765 5763 5761 5759 5757 5754
5832 5831 5829 5827 5825 5824 5823 5821 5820 5818 5816 5814 5812 5810 5808 5805 5803 5800 5798 5795 5793 5791 5790 5787 5785 5783 5781 5779 5777 5774 5772 5770 5768 5766 5764 5763 5761 5758 5756 5754 5751 5749 5746
5826 5824 5822 5820 5819 5817 5816 5814 5813 5811 5809 5807 5805 5803 5801 5798 5796 5793 5790 5788 5786 5784 5782 5780 5778 5776 5774 5772 5769 5767 5765 5763 5761 5759 5757 5755 5753 5751 5748 5746 5743 5741 5738
5818 5817 5815 5814 5813 5811 5809 5808 5806 5804 5801 5799 5797 5795 5793 5790 5788 5785 5783 5781 5779 5777 5775 5773 5771 5769 5767 5764 5762 5760 5758 5756 5754 5752 5750 5748 5745 5743 5740 5738 5735 5733 5730
5810 5808 5807 5806 5805 5803 5802 5800 5798 5796 5794 5791 5789 5786 5784 5782 5780 5777 5775 5773 5771 5769 5767 5765 5763 5761 5759 5757 5755 5753 5751 5749 5747 5745 5743 5740 5738 5735 5733 5730 5727 5724 5721
5801 5800 5799 5797 5796 5794 5793 5791 5789 5787 5785 5782 5780 5778 5775 5773 5771 5769 5767 5765 5763 5762 5760 5758 5756 5754 5752 5750 5748 5746 5744 5742 5739 5737 5735 5733 5730 5727 5725 5722 5719 5716 5713
5792 5791 5790 5789 5787 5785 5784 5782 5781 5779 5776 5773 5771 5769 5767 5765 5763 5761 5759 5757 5755 5753 5752 5750 5749 5747 5745 5743 5741 5739 5736 5734 5732 5730 5728 5725 5722 5719 5717 5714 5711 5707 5704
5782 5781 5781 5780 5778 5776 5775 5773 5771 5769 5766 5764 5762 5760 5758 5756 5754 5752 5750 5748 5746 5745 5743 5742 5741 5739 5737 5735 5733 5731 5729 5726 5724 5722 5719 5717 5714 5711 5708 5705 5702 5699 5695
5773 5772 5771 5770 5768 5767 5765 5763 5761 5759 5757 5755 5753 5751 5748 5747 5745 5743 5741 5740 5738 5736 5735 5734 5732 5730 5729 5727 5725 5723 5720 5718 5716 5714 5711 5709 5706 5703 5700 5697 5694 5690 5687
5763 5762 5761 5760 5758 5756 5755 5753 5751 5749 5747 5745 5743 5741 5739 5737 5735 5734 5732 5731 5730 5728 5726 5725 5723 5722 5720 5718 5716 5714 5712 5710 5708 5705 5703 5701 5698 5695 5692 5689 5685 5682 5678
5753 5752 5751 5750 5748 5746 5744 5743 5741 5739 5737 5735 5734 5732 5730 5728 5726 5725 5724 5722 5721 5719 5718 5716 5714 5713 5711 5710 5708 5706 5704 5702 5699 5697 5695 5692 5689 5686 5683 5680 5677 5673 5670
5743 5742 5741 5740 5738 5737 5735 5733 5732 5730 5728 5726 5725 5723 5721 5719 5718 5716 5715 5713 5712 5711 5709 5707 5705 5704 5702 5700 5699 5697 5695 5693 5691 5688 5686 5683 5681 5678 5675 5672 5668 5665 5661
5733 5732 5731 5730 5728 5727 5725 5724 5722 5721 5719 5718 5716 5714 5713 5711 5709 5707 5706 5705 5703 5701 5700 5698 5697 5695 5693 5691 5690 5688 5686 5684 5682 5680 5677 5675 5672 5669 5666 5663 5659 5656 5653
5723 5722 5722 5720 5719 5717 5716 5715 5713 5712 5710 5709 5707 5705 5704 5702 5700 5699 5697 5695 5694 5692 5691 5689 5688 5686 5684 5682 5680 5679 5677 5675 5673 5671 5668 5666 5663 5660 5657 5654 5651 5647 5644
5714 5713 5712 5711 5710 5708 5707 5705 5704 5702 5701 5699 5697 5696 5694 5692 5691 5689 5688 5686 5685 5683 5682 5680 5678 5677 5675 5673 5672 5670 5668 5666 5664 5661 5659 5657 5654 5651 5648 5645 5642 5639 5636
5705 5704 5703 5702 5700 5699 5697 5696 5694 5692 5691 5689 5688 5686 5684 5683 5681 5680 5678 5677 5675 5674 5672 5671 5669 5667 5666 5664 5663 5661 5659 5657 5654 5652 5650 5647 5645 5642 5639 5636 5633 5630 5627